sat.trackr.live / text

‹ back to catalog

LYNK TOWER 6

NORAD 59123 · 2024-043AB

PAYLOAD ACTIVE UNKNOWN

§ Identity

Operator
Country
US
Launch date
2024-03-04
Launch site
AFWTR
Launch vehicle
Mass (kg)
RCS (m²)

External: N2YO · Heavens-Above · Gunter

§ Orbital elements

Epoch: 2026-09-22T08:36:12.983040Z

Period
93.99 min
Inclination
97.5731°
Eccentricity
0.0008502
Mean motion
15.32023171 rev/d
Perigee alt
464.0 km
Apogee alt
475.6 km
Semi-major
6,847.9 km
B*
1.2535e-4
RAAN
44.3552°
Arg perigee
257.9398°
Mean anomaly
102.0890°
Rev number
14,190

§ Raw data

LYNK TOWER 61 59123U 24043AB  26265.35848360  .00003797  00000+0  12535-3 0  99952 59123  97.5731  44.3552 0008502 257.9398 102.0890 15.32023171141905

JSON: /api/v1/satellites/59123 · /tle

For live sub-satellite position, see the globe view (requires WebGL).

§ Visibility from observer

Set your observer location to see the next 7 days of passes ≥ 10°. The values pass through the URL so the page stays shareable.

No JS? Fill the form by hand. The geolocation button needs JavaScript.

§ Radio — SatNOGS DB

ModeDescriptionDownlinkUplink
BPSK S-band telemetry 2.260 GHz

1 transmitter · refreshed weekly from db.satnogs.org